Temperature
16 15 15 15 15 15 15 15 14 14 14 14 14 14 14 14 14 14 13 13 13 13 13 13 13 13 13 13 13 13 13 12 12 12 12 12 12 12 12 11 11 11 11
16 15 15 15 15 15 15 15 14 14 14 14 14 14 14 14 14 13 13 13 13 13 13 13 13 13 13 13 13 12 12 12 12 12 12 11 11 11 11 11 11 11 11
15 15 15 15 15 15 15 14 14 14 14 14 14 14 14 14 14 13 13 13 13 13 13 13 13 12 12 12 12 12 12 12 12 12 11 11 11 11 11 11 11 11 11
15 15 15 15 15 15 14 14 14 14 14 14 14 14 13 13 13 13 13 13 13 13 13 12 12 12 12 12 12 12 12 12 12 12 11 11 11 11 11 11 11 11 11
15 15 15 15 15 14 14 14 14 14 14 14 13 13 13 13 13 13 13 13 13 13 12 12 12 12 12 12 12 12 11 11 11 11 11 11 11 11 11 11 11 11 11
14 14 14 14 14 14 14 14 14 14 13 13 13 13 13 13 13 13 13 13 12 12 12 12 12 12 12 12 12 12 12 11 11 11 11 11 11 11 11 11 10 10 10
14 14 14 14 14 14 14 14 14 13 13 13 13 13 13 13 13 13 13 12 12 12 12 12 12 12 12 11 12 12 11 11 11 11 11 11 11 11 11 10 10 10 10
13 13 13 13 13 13 13 13 13 13 13 13 13 13 12 12 13 12 12 12 12 12 12 12 12 12 11 11 11 11 11 11 11 11 11 11 11 10 10 10 10 10 10
13 13 13 13 13 13 13 13 13 13 13 12 12 12 12 12 12 12 12 11 11 12 12 11 11 11 11 11 11 11 11 11 11 11 11 11 11 11 11 10 10 10 10
13 13 13 13 13 13 13 13 12 12 12 12 12 12 12 12 12 12 12 11 11 11 11 11 11 11 11 11 11 11 11 11 10 11 11 11 11 10 10 10 10 9 9
12 12 12 12 12 12 12 12 12 12 12 12 11 12 11 11 11 12 11 11 11 11 11 11 11 11 11 11 11 10 10 10 10 10 10 10 10 10 10 10 10 9 9
12 12 12 12 12 12 12 12 12 12 11 11 11 11 11 11 11 11 11 11 11 10 11 11 11 11 11 10 10 10 10 10 10 10 10 10 10 9 9 9 9 9 9
11 11 11 11 11 11 11 11 11 11 11 11 11 11 11 11 11 11 11 11 11 10 10 10 10 10 10 10 10 10 10 9 9 9 9 9 9 9 9 9 9 9 9
11 10 10 10 10 11 11 11 11 11 10 10 10 10 10 10 10 11 11 10 10 10 10 10 10 10 10 10 9 9 9 9 9 9 9 9 9 8 8 8 8 8 8
10 10 10 10 10 10 10 10 10 10 10 10 10 10 10 10 10 10 10 10 10 10 10 9 9 9 9 9 9 9 9 8 8 8 8 8 8 8 8 8 8 8 7
9 9 9 9 9 9 9 9 10 10 10 10 10 10 10 10 10 10 10 9 9 9 9 9 9 8 8 8 8 8 8 8 8 8 8 8 8 7 7 7 7 7 7
9 9 9 9 9 9 9 9 9 9 9 9 10 9 9 9 9 9 9 9 9 8 8 8 8 8 8 8 8 7 7 8 7 7 7 7 7 7 7 7 7 7 7
8 8 8 8 8 8 8 8 8 8 9 9 9 9 9 9 9 9 8 8 8 8 7 7 8 8 7 7 7 7 7 7 7 7 7 7 7 7 7 7 7 7 6
7 7 8 8 8 8 8 8 8 8 8 8 8 8 8 8 8 8 7 7 7 7 7 7 7 7 7 7 7 7 7 7 7 7 7 7 6 6 6 6 6 6 6
7 7 7 7 7 7 7 7 7 7 7 7 7 7 7 7 7 7 7 7 6 6 6 6 6 6 6 6 6 6 6 6 6 6 6 6 6 6 6 6 6 6 6
6 6 6 6 6 6 6 6 6 6 6 7 7 7 7 6 6 6 6 6 6 6 6 6 6 6 6 6 6 6 6 6 6 6 6 6 6 6 6 6 5 5 5
6 6 6 5 6 6 6 6 6 6 6 6 6 6 6 6 6 6 6 6 6 6 5 5 5 5 5 5 5 5 5 5 5 5 5 5 5 5 5 5 5 5 5
5 5 5 5 5 5 5 5 5 5 5 5 5 5 5 5 5 5 5 5 5 5 5 5 5 5 5 5 5 5 5 5 5 5 5 5 5 5 5 5 5 4 4
4 4 4 4 4 4 5 5 4 5 5 5 5 5 5 5 5 5 4 4 4 4 4 4 4 4 5 5 5 5 5 5 5 5 5 5 5 5 5 5 4 4 4
3 3 3 4 4 4 4 4 4 4 4 4 4 4 4 4 4 4 4 4 4 4 4 4 4 4 4 4 4 4 5 5 5 4 4 4 4 4 4 4 4 4 4
3 3 3 3 3 3 3 3 3 3 3 4 4 4 4 4 4 4 3 3 3 3 3 3 3 3 4 4 4 4 4 4 4 4 4 4 4 4 4 4 4 3 3
Wind_Speed
5 5 5 5 4 4 4 4 4 4 4 4 4 4 4 4 4 4 4 3 3 3 3 3 3 2 2 2 2 3 3 3 3 2 1 2 2 1 1 1 1 2 3
4 4 5 5 4 5 4 4 4 4 4 4 5 5 4 4 4 5 5 4 4 4 4 3 3 2 3 2 2 3 3 4 4 3 3 2 3 2 2 1 1 1 1
4 4 4 5 5 6 5 4 4 4 4 4 5 5 5 5 5 5 5 5 5 5 4 4 4 4 4 3 3 3 3 3 4 4 3 3 3 2 2 2 2 2 2
3 4 4 5 5 5 5 5 5 5 5 5 5 5 5 5 5 6 6 6 5 5 5 5 5 5 5 4 4 4 3 4 4 4 4 4 3 3 3 3 3 3 3
3 4 4 4 4 4 5 5 5 5 5 5 5 5 5 5 5 5 6 6 6 6 5 5 5 4 3 3 4 4 4 4 4 4 5 4 4 4 4 4 3 3 3
3 3 3 3 3 4 4 5 5 5 5 5 6 6 6 5 3 4 6 6 6 6 6 6 5 6 6 5 4 4 4 5 5 5 5 6 6 6 4 4 4 4 3
3 3 3 3 3 4 4 5 5 5 5 6 6 6 7 6 5 6 7 7 7 7 7 7 5 5 7 7 7 8 7 6 7 7 7 7 7 6 6 6 6 6 5
2 2 3 4 4 4 5 5 6 6 6 6 6 7 7 6 6 7 8 8 7 8 8 8 8 8 7 7 7 7 7 7 7 8 8 8 7 5 7 7 6 5 5
3 4 4 4 5 5 6 6 6 6 6 7 6 7 7 7 7 8 8 7 7 8 8 8 8 8 6 7 8 8 8 7 6 6 7 6 5 4 5 5 6 6 6
4 5 5 5 5 6 6 6 6 6 7 7 7 7 8 7 6 8 9 6 7 7 7 7 8 8 7 8 10 9 9 8 6 6 7 8 8 8 9 9 7 7 6
5 5 5 6 6 6 6 5 6 6 6 7 7 7 7 7 6 9 10 8 7 7 7 7 6 8 9 10 10 10 8 7 7 7 7 7 7 7 8 9 8 7 8
5 6 6 6 5 5 5 5 6 6 7 7 7 7 6 6 7 8 10 11 9 8 8 7 6 7 9 10 10 8 7 7 7 7 7 7 7 7 7 7 8 9 8
6 6 6 6 5 5 5 6 6 6 6 6 6 6 6 6 6 8 10 11 11 9 7 6 5 7 8 9 9 9 8 8 8 8 8 8 7 7 6 6 7 8 8
6 6 6 6 6 5 5 5 5 6 6 6 7 7 7 6 6 6 6 7 9 9 7 6 6 8 8 8 7 8 8 7 8 8 8 7 6 6 6 6 6 6 6
7 6 6 6 6 6 6 6 7 7 7 7 7 7 7 7 7 6 6 7 7 7 6 6 6 6 7 7 7 8 8 8 8 8 8 7 7 7 7 7 7 7 7
7 6 6 5 5 6 6 6 6 7 7 9 9 9 8 7 6 7 8 9 8 7 6 7 7 8 8 8 8 8 8 8 8 8 8 8 8 8 8 7 7 8 8
7 7 6 6 6 6 6 6 7 6 7 8 9 9 9 8 6 7 8 8 8 8 8 8 9 9 9 9 9 9 9 8 8 8 8 8 7 8 8 8 8 8 8
7 7 7 6 6 6 6 7 7 7 7 6 6 8 8 8 7 7 6 5 6 7 9 9 9 9 9 9 9 9 8 8 8 8 8 8 7 8 8 8 8 9 9
7 6 6 6 6 7 6 7 7 8 8 7 6 5 6 7 7 7 7 6 7 8 8 8 8 8 9 9 9 8 9 8 9 8 8 9 8 8 9 9 9 9 10
6 6 7 6 6 7 7 7 7 7 7 7 7 6 4 4 5 5 6 7 8 8 8 8 8 8 8 8 8 8 8 8 9 9 9 8 8 8 10 10 10 9 9
6 6 7 7 7 7 7 7 7 7 7 7 7 6 5 6 7 7 7 8 8 8 8 8 8 8 8 7 8 9 9 8 9 9 9 8 8 9 9 9 9 10 9
5 6 6 6 6 6 7 7 7 8 8 8 7 6 7 7 7 7 7 8 8 7 7 7 7 7 7 8 8 8 9 9 8 8 8 8 8 9 9 9 9 9 9
6 6 6 6 6 7 7 7 7 7 8 8 7 7 7 7 7 8 7 7 7 7 7 7 7 7 7 7 8 8 9 9 8 8 8 8 8 8 9 9 11 11 10
6 6 6 6 6 6 7 7 7 8 8 8 8 7 7 7 7 7 7 6 6 7 7 7 7 9 10 8 8 9 9 9 9 9 10 9 9 8 8 9 10 11 11
5 6 6 6 6 6 7 7 7 7 7 7 7 7 7 7 7 6 6 6 7 7 8 7 7 8 10 11 10 9 9 9 10 9 8 8 10 10 9 10 9 10 10
5 6 6 6 6 6 6 7 7 7 7 7 7 7 7 6 6 6 6 6 6 7 7 7 8 9 10 10 11 11 10 9 10 10 9 8 9 9 9 9 10 10 10
Wind_Direction
201 203 207 211 210 213 219 223 225 223 218 219 216 218 215 211 207 209 215 208 213 214 212 223 230 236 230 227 223 220 225 231 231 221 190 176 179 193 141 168 168 169 149
204 210 213 214 212 216 220 220 221 221 220 219 219 219 218 218 218 218 217 215 218 224 225 227 231 224 236 238 225 216 213 219 223 223 209 197 197 189 182 181 187 189 177
207 211 216 220 219 220 222 223 223 221 216 214 217 221 223 223 224 225 223 222 224 229 231 231 232 225 227 221 217 218 214 212 219 221 216 201 207 197 200 204 207 202 214
214 218 223 228 227 228 225 224 224 222 222 220 220 224 227 229 227 223 223 226 227 231 235 235 233 229 230 223 218 221 219 214 214 220 217 207 208 204 212 217 219 214 220
222 229 232 233 229 228 227 225 225 228 232 230 229 227 226 227 229 228 226 229 230 232 233 234 236 240 258 245 234 224 218 225 222 222 224 218 215 206 217 221 225 225 224
235 240 243 241 235 230 228 228 228 229 236 237 236 234 228 227 211 232 240 232 234 235 233 232 226 219 219 222 238 251 255 241 238 233 231 230 228 223 217 222 223 228 237
246 242 243 242 239 239 237 231 230 232 234 238 238 239 234 222 198 219 235 242 239 239 237 233 229 225 222 223 213 217 233 249 258 255 246 243 241 227 220 224 226 233 243
263 264 258 250 246 246 245 243 240 239 236 239 241 241 242 230 206 219 228 236 241 241 240 238 235 232 228 231 229 227 231 232 237 244 250 251 249 243 230 230 232 233 235
263 264 268 262 252 247 246 247 247 244 242 241 241 239 239 231 208 214 223 235 239 241 241 240 240 238 216 222 234 236 240 239 227 238 263 264 270 247 231 226 223 225 233
269 266 265 264 258 252 250 248 249 246 245 246 243 240 240 242 208 209 223 235 240 241 240 238 238 241 216 216 233 237 241 243 238 230 233 235 236 224 214 224 225 230 237
280 272 268 264 263 261 258 253 249 247 246 246 246 243 242 243 224 214 222 235 240 242 240 239 234 215 220 225 239 244 248 254 248 245 242 240 234 230 222 223 228 234 239
284 275 269 267 264 260 258 256 251 247 245 245 246 247 246 242 235 224 221 234 252 245 244 244 235 208 225 230 234 239 241 245 245 242 239 239 237 231 228 225 229 234 242
283 278 273 269 264 260 257 256 251 246 246 247 246 248 248 247 238 227 227 231 239 245 251 257 246 221 227 233 232 227 227 235 238 239 239 241 241 237 232 229 229 232 240
278 277 274 270 267 263 261 259 257 252 250 251 251 252 253 248 246 240 237 236 231 238 250 240 222 220 229 235 227 224 231 234 237 241 243 244 241 235 232 228 226 223 230
273 273 273 271 270 266 262 262 260 260 262 259 258 258 258 255 251 246 245 244 241 238 239 239 236 232 232 232 231 231 232 230 233 237 238 238 237 234 233 231 229 227 231
269 270 269 267 266 265 265 267 263 259 264 258 261 263 262 264 264 246 248 252 244 225 225 233 235 235 236 236 235 234 233 234 234 235 236 236 236 234 231 227 228 230 232
268 270 270 267 265 263 263 265 273 272 257 252 250 254 260 267 258 245 246 246 231 213 231 238 237 238 239 239 237 237 237 236 234 235 235 234 235 235 232 228 227 231 234
272 271 269 268 267 266 266 268 269 273 276 273 254 240 245 251 250 246 237 234 235 227 239 242 241 240 240 239 238 238 237 237 235 235 235 234 234 234 233 232 231 232 235
274 273 274 275 271 268 268 268 268 270 272 275 279 264 238 243 236 224 212 235 241 238 239 244 246 244 242 241 239 237 235 235 235 236 235 233 234 234 233 233 234 234 238
275 275 277 276 273 271 270 270 271 271 272 272 272 277 275 264 260 243 234 242 245 246 243 244 246 246 244 243 240 237 237 236 235 238 239 237 237 238 235 233 235 236 236
282 277 270 271 271 271 272 273 274 273 272 272 271 270 261 259 258 254 248 246 244 246 247 246 247 246 242 241 239 237 238 240 239 239 239 239 238 240 239 237 237 238 239
284 280 276 275 275 274 276 274 273 273 273 274 276 270 246 253 258 256 254 252 251 251 249 247 246 245 242 240 239 238 238 240 240 239 240 239 240 243 240 237 238 238 240
288 285 283 283 282 282 279 275 275 274 275 275 274 272 263 259 258 257 256 257 257 255 253 249 247 246 244 244 243 242 240 240 239 239 239 238 238 241 238 235 235 238 236
291 289 288 288 288 285 282 281 279 278 277 277 275 272 268 265 261 261 260 259 257 257 256 253 251 248 246 248 248 246 246 246 247 244 243 241 239 241 235 233 235 234 234
294 294 291 289 290 289 288 286 285 283 281 278 277 277 274 270 268 267 264 260 259 259 259 259 256 253 251 250 250 250 248 247 246 247 243 240 240 236 233 231 230 232 231
291 293 294 293 291 290 290 290 291 291 291 288 282 280 278 275 273 272 269 265 263 261 261 261 259 260 261 258 255 252 245 239 238 241 239 238 237 232 230 230 229 229 231
Height
1540 1541 1542 1542 1543 1544 1544 1544 1544 1544 1545 1545 1545 1545 1546 1546 1546 1546 1546 1546 1546 1546 1546 1546 1546 1546 1546 1547 1547 1547 1547 1548 1548 1548 1547 1547 1546 1546 1545 1545 1545 1544 1544
1538 1539 1539 1540 1541 1541 1541 1542 1542 1542 1542 1543 1543 1543 1543 1544 1544 1544 1544 1544 1545 1544 1544 1544 1544 1544 1544 1545 1544 1545 1545 1545 1546 1546 1546 1545 1545 1545 1544 1544 1543 1543 1543
1536 1536 1537 1537 1538 1538 1539 1539 1539 1539 1540 1540 1540 1540 1541 1541 1541 1542 1542 1542 1542 1542 1542 1542 1542 1542 1542 1542 1542 1542 1543 1543 1543 1544 1543 1543 1543 1543 1542 1542 1542 1542 1542
1533 1534 1534 1534 1535 1536 1536 1536 1537 1537 1537 1537 1537 1537 1538 1538 1538 1539 1539 1539 1539 1540 1540 1539 1539 1539 1539 1540 1540 1540 1540 1540 1541 1541 1541 1541 1541 1540 1540 1540 1540 1540 1540
1531 1531 1532 1532 1532 1532 1533 1533 1534 1534 1534 1534 1534 1534 1534 1535 1535 1535 1536 1536 1536 1536 1537 1536 1536 1536 1536 1537 1537 1537 1537 1538 1538 1538 1539 1539 1538 1538 1538 1538 1538 1538 1538
1528 1528 1529 1529 1529 1529 1529 1530 1530 1530 1530 1531 1531 1531 1531 1531 1531 1532 1532 1533 1533 1533 1533 1533 1533 1533 1533 1533 1534 1534 1534 1535 1535 1536 1536 1536 1536 1535 1535 1536 1536 1536 1536
1525 1526 1526 1526 1526 1526 1526 1526 1526 1526 1527 1527 1527 1527 1527 1527 1527 1528 1528 1529 1529 1530 1530 1530 1530 1530 1530 1530 1530 1530 1531 1531 1531 1532 1532 1532 1532 1532 1532 1532 1532 1533 1533
1523 1523 1523 1523 1523 1523 1523 1523 1523 1523 1523 1523 1523 1523 1523 1523 1523 1524 1525 1525 1526 1526 1526 1526 1526 1526 1526 1527 1527 1527 1527 1527 1527 1527 1528 1528 1528 1528 1528 1529 1529 1529 1529
1519 1519 1519 1520 1519 1519 1519 1519 1519 1519 1519 1518 1518 1518 1518 1518 1519 1520 1520 1521 1521 1522 1522 1522 1522 1522 1522 1522 1523 1523 1523 1523 1523 1522 1522 1523 1523 1524 1524 1525 1525 1525 1525
1516 1516 1516 1516 1516 1515 1515 1515 1515 1515 1514 1514 1514 1514 1514 1514 1514 1515 1516 1516 1516 1517 1517 1517 1517 1517 1517 1517 1518 1518 1518 1519 1518 1518 1518 1518 1518 1519 1519 1520 1520 1521 1521
1512 1512 1512 1512 1511 1511 1511 1511 1510 1510 1510 1510 1509 1509 1509 1509 1509 1510 1510 1511 1511 1512 1512 1512 1512 1512 1512 1512 1513 1513 1513 1514 1514 1513 1513 1513 1513 1514 1514 1514 1515 1516 1516
1509 1508 1508 1507 1507 1507 1507 1506 1506 1505 1505 1505 1504 1504 1504 1504 1504 1504 1505 1506 1506 1506 1506 1506 1506 1506 1507 1507 1507 1507 1508 1508 1508 1508 1508 1508 1508 1508 1508 1509 1509 1510 1510
1504 1504 1503 1503 1502 1502 1502 1501 1501 1501 1500 1500 1499 1499 1498 1499 1498 1499 1499 1500 1500 1500 1500 1500 1500 1500 1501 1501 1501 1501 1502 1502 1502 1502 1502 1502 1503 1503 1503 1503 1503 1504 1504
1500 1500 1499 1498 1498 1497 1497 1497 1496 1495 1495 1495 1494 1494 1493 1493 1493 1492 1493 1493 1494 1494 1494 1494 1494 1494 1494 1494 1495 1495 1495 1495 1496 1496 1496 1496 1497 1497 1497 1497 1498 1498 1498
1496 1495 1495 1494 1493 1492 1492 1491 1490 1490 1490 1489 1488 1488 1487 1487 1487 1487 1487 1487 1487 1488 1488 1488 1488 1488 1488 1488 1488 1488 1489 1489 1489 1489 1490 1490 1490 1490 1491 1491 1492 1492 1492
1491 1491 1490 1489 1488 1487 1486 1485 1484 1484 1483 1482 1482 1482 1481 1481 1480 1480 1480 1480 1481 1481 1481 1481 1481 1481 1481 1481 1481 1482 1482 1482 1483 1483 1484 1484 1484 1484 1485 1485 1486 1486 1486
1486 1486 1485 1484 1483 1482 1481 1479 1478 1477 1476 1475 1475 1474 1474 1473 1473 1473 1473 1473 1473 1474 1474 1474 1474 1474 1474 1475 1475 1475 1475 1475 1476 1476 1477 1477 1478 1478 1478 1479 1479 1480 1480
1481 1480 1479 1478 1478 1477 1476 1474 1473 1471 1470 1469 1468 1467 1467 1466 1466 1466 1466 1466 1466 1466 1466 1466 1467 1467 1467 1467 1468 1468 1468 1468 1469 1469 1470 1470 1471 1471 1472 1472 1473 1473 1474
1476 1475 1474 1473 1472 1471 1470 1469 1467 1466 1464 1463 1462 1461 1460 1459 1459 1459 1458 1458 1458 1458 1458 1459 1459 1460 1460 1460 1460 1461 1461 1461 1462 1462 1462 1463 1464 1464 1465 1465 1466 1466 1467
1471 1470 1469 1467 1466 1465 1464 1463 1462 1460 1459 1457 1456 1455 1454 1453 1452 1451 1451 1451 1451 1451 1451 1451 1451 1452 1452 1453 1453 1453 1454 1454 1455 1455 1455 1456 1456 1457 1457 1458 1459 1459 1460
1466 1465 1463 1462 1461 1460 1458 1457 1456 1454 1453 1451 1450 1449 1448 1447 1446 1445 1444 1444 1444 1444 1444 1444 1444 1444 1444 1445 1445 1445 1446 1446 1447 1447 1448 1448 1448 1449 1450 1451 1451 1452 1452
1461 1460 1458 1457 1455 1454 1453 1451 1450 1448 1446 1445 1443 1442 1441 1440 1439 1438 1437 1437 1437 1437 1437 1437 1436 1437 1437 1437 1437 1438 1438 1438 1439 1439 1440 1440 1441 1441 1442 1443 1444 1445 1445
1456 1454 1453 1451 1450 1448 1446 1445 1444 1442 1440 1439 1437 1436 1435 1433 1432 1431 1430 1430 1430 1429 1429 1429 1429 1429 1429 1429 1429 1430 1430 1431 1431 1432 1432 1432 1433 1433 1434 1435 1436 1437 1437
1450 1449 1447 1446 1444 1442 1441 1439 1438 1436 1434 1433 1431 1430 1428 1427 1426 1425 1424 1423 1422 1422 1422 1421 1421 1421 1421 1421 1422 1422 1423 1423 1424 1424 1425 1425 1425 1426 1426 1427 1428 1429 1430
1445 1444 1443 1441 1439 1437 1435 1434 1432 1430 1428 1427 1425 1423 1422 1420 1419 1418 1417 1416 1416 1415 1414 1414 1414 1414 1414 1414 1414 1414 1415 1415 1416 1417 1417 1417 1417 1418 1419 1419 1420 1421 1422
1441 1439 1438 1436 1434 1432 1430 1428 1426 1424 1423 1421 1419 1417 1415 1414 1413 1412 1411 1410 1409 1408 1408 1407 1407 1407 1406 1406 1406 1406 1407 1407 1408 1409 1410 1410 1410 1410 1411 1412 1412 1413 1414